FW6288 Weather Reports


Display with metric or nautical units.
time (UTC)temp
F
wind
direction
speed
MPH
gust
MPH
rain 1hr
in
rain 24hr
in
rain mn
in
humidity
%
barometer
mb
20260505061602 46 357 10.0 18.0 0.00 0.28 0.00 83 1007.3
20260505060052 46 357 11.0 18.0 0.00 0.31 0.00 84 1007.0
20260505054550 46 191 7.0 13.0 0.00 0.31 0.00 84 1006.7
20260505053046 46 208 7.0 14.0 0.00 0.31 0.00 82 1006.4
20260505051542 47 187 9.0 16.0 0.00 0.31 0.00 81 1006.3
20260505050117 47 233 6.0 16.0 0.00 0.33 0.00 80 1006.0
20260505041548 48 102 6.0 11.0 0.00 0.33 0.00 80 1005.4
20260505040031 48 295 3.0 14.0 0.00 0.34 0.00 80 1005.2
20260505034527 47 182 4.0 12.0 0.00 0.34 0.00 81 1005.0
20260505033024 47 188 5.0 13.0 0.00 0.34 0.00 82 1004.8
20260505031522 47 202 3.0 8.0 0.00 0.34 0.00 84 1004.7
20260505030020 47 140 4.0 8.0 0.00 0.35 0.34 83 1004.5
20260505024521 47 235 3.0 8.0 0.00 0.35 0.34 82 1004.4
20260505023016 48 347 1.0 8.0 0.00 0.35 0.34 81 1004.1
20260505021514 48 357 4.0 15.0 0.00 0.35 0.34 79 1003.9
20260505020017 49 198 6.0 17.0 0.00 0.38 0.34 77 1003.7
20260505014510 49 286 9.0 17.0 0.00 0.38 0.34 75 1003.5
20260505013007 49 357 7.0 18.0 0.00 0.38 0.34 75 1003.3
20260505011509 49 194 6.0 17.0 0.00 0.38 0.34 74 1003.4
20260505010003 50 177 8.0 19.0 0.00 0.45 0.34 72 1003.2
20260505004501 49 220 11.0 19.0 0.00 0.45 0.34 71 1003.0
20260505003104 50 214 5.0 17.0 0.00 0.45 0.34 68 1002.9
20260505001631 50 256 8.0 22.0 0.00 0.45 0.34 65 1002.7
20260505000135 50 221 11.0 25.0 0.00 0.61 0.34 64 1002.7
20260504234611 50 357 9.0 20.0 0.00 0.61 0.34 65 1002.2
20260504233104 50 357 10.0 19.0 0.00 0.61 0.34 64 1002.0
20260504231551 50 216 10.0 21.0 0.00 0.61 0.34 63 1001.8
20260504230049 50 206 14.0 20.0 0.00 0.69 0.34 61 1001.5
20260504224604 51 180 13.0 22.0 0.00 0.69 0.34 60 1001.5
20260504223047 52 216 7.0 19.0 0.00 0.69 0.34 60 1001.4
20260504221546 52 184 11.0 21.0 0.00 0.69 0.34 59 1001.3
20260504220044 53 206 13.0 20.0 0.00 0.84 0.34 57 1001.2
20260504214542 53 250 11.0 25.0 0.00 0.84 0.34 57 1001.0
20260504213100 53 220 6.0 18.0 0.00 0.84 0.34 60 1000.8
20260504211540 53 88 3.0 18.0 0.00 0.84 0.34 61 1000.7
20260504210036 52 257 6.0 24.0 0.00 0.86 0.34 58 1000.6
20260504204534 52 186 7.0 18.0 0.00 0.86 0.34 63 1000.3
20260504203035 51 298 6.0 13.0 0.00 0.86 0.34 68 1000.2
20260504201534 51 357 6.0 20.0 0.00 0.86 0.34 67 1000.0
20260504200026 51 253 4.0 14.0 0.00 0.90 0.34 70 999.6
20260504194523 51 54 4.0 23.0 0.00 0.90 0.34 72 999.3
20260504193021 50 58 7.0 15.0 0.00 0.90 0.34 75 999.0
20260504191518 49 99 4.0 14.0 0.00 0.90 0.34 77 999.0
20260504190013 48 224 3.0 20.0 0.00 0.93 0.34 80 998.8
20260504184512 47 195 2.0 9.0 0.00 0.93 0.34 84 998.8
20260504183007 46 230 3.0 16.0 0.00 0.93 0.34 85 998.6
20260504181503 46 357 5.0 16.0 0.00 0.93 0.34 86 998.4
20260504180001 45 297 2.0 11.0 0.00 0.93 0.34 86 998.2
20260504174616 45 222 5.0 16.0 0.00 0.93 0.34 85 998.0
20260504173059 45 304 5.0 14.0 0.00 0.93 0.34 86 997.9
20260504171555 44 231 9.0 18.0 0.01 0.93 0.34 86 997.5
20260504120112 39 190 11.0 23.0 0.02 0.74 0.15 90 987.7
20260504110119 38 357 9.0 34.0 0.00 0.72 0.13 91 984.5
20260504081537 39 357 7.0 15.0 0.04 0.69 0.10 95 976.6